シュヴァスマン-ヴァハマン第1彗星

29P/Schwassmann-Wachmann 1 (2004)

English version
Home page
Updated on November 5, 2020

---------------------------------------------------------------------

・ プロフィール

・ 写真集

・ 軌道要素

Epoch 2004 July 14.0 TT = JDT 2453200.5
T 2004 July 10.83371 TT                                 MPC
q   5.7235812            (2000.0)            P               Q
n   0.06726260     Peri.   48.95673     +0.99214562     -0.03564877
a   5.9880713      Node   312.71548     -0.02847769     +0.86898898
e   0.0441695      Incl.    9.39211     +0.12180346     +0.49354567
P  14.7
From 16492 observations 1902 Mar. 5-2012 May 3, mean residual 0".6.

・ 星図

・ 光度変化

        m1 = 4.0 + 5 logΔ + 7.5 log r

---------------------------------------------------------------------

軌道要素はM.P.E.C. 2012-J16に掲載されたものです。
星図は StellaNavigator Ver.2.0 for Windows (アストロアーツ編著 / アスキー出版局刊) で作成したものです。
光度グラフはComet for Windowsで作成したものです。

---------------------------------------------------------------------

Copyright(C) Seiichi Yoshida (comet@aerith.net). All rights reserved.